Location: Oriwa
(40.7500°S, 175.3333°E)
Time: 12:26:01
(UTC+00:00)

Cosmos 1626 - Pass Details

Date: 03 February 2023
Orbit: 466 x 468 km, 82.5° (Epoch: 30 March)

Event Time Altitude Azimuth Distance (km) Brightness Sun altitude
Exits shadow 15:00:39 46° 205° (SSW) 670 2.8 -23.2°
Drops below altitude 10° 15:03:27 10° 179° (S) 1,684 5.5 -22.9°
Sets 15:05:35 0° 175° (S) 2,571 6.6 -22.7°
